TCA7224 SVMI-SVLF

Flight info

Callsign TCA7224
Flight time N/A
Altitude 24000
Route MARES1 MARES A315 ATONO/N0463F320 UP533 PBL/N0415F240 W9 MULCA W24 BRM W8 VRA DCT GUAYA W41 EVG DCT FF19
Aircraft B738/M-SDE2E3FGHIRWXY/LB1

Departure

Time N/A
Airport Maiquetía Simón Bolívar International Airport (SVMI)

Arrival

Time 2026-04-22 12:35
Airport La Fria Airport (SVLF)
Time Latitude Longitude Altitude Speed Heading
2026-04-22 11:46 10.68093 -67.70838 23761 ft 416 kts 242°
2026-04-22 11:46 10.66723 -67.73410 24352 ft 419 kts 242°
2026-04-22 11:46 10.65330 -67.76025 24918 ft 422 kts 242°
2026-04-22 11:47 10.63922 -67.78666 25489 ft 424 kts 242°
2026-04-22 11:47 10.62509 -67.81317 26048 ft 427 kts 242°
2026-04-22 11:47 10.61106 -67.83948 26628 ft 428 kts 242°
2026-04-22 11:47 10.59673 -67.86633 27164 ft 431 kts 242°
2026-04-22 11:48 10.58243 -67.89316 27695 ft 433 kts 242°
2026-04-22 11:48 10.56807 -67.92007 28188 ft 435 kts 242°
2026-04-22 11:48 10.55353 -67.94731 28683 ft 438 kts 242°
2026-04-22 11:48 10.53928 -67.97432 29199 ft 439 kts 244°
2026-04-22 11:49 10.52647 -68.00294 29579 ft 444 kts 248°
2026-04-22 11:49 10.51548 -68.03236 30072 ft 446 kts 250°
2026-04-22 11:49 10.50524 -68.06216 30482 ft 449 kts 251°
2026-04-22 11:49 10.49514 -68.09199 30862 ft 453 kts 249°
2026-04-22 11:50 10.48301 -68.12148 31281 ft 455 kts 244°
2026-04-22 11:50 10.46886 -68.15015 31697 ft 457 kts 241°
2026-04-22 11:50 10.45364 -68.17859 32260 ft 456 kts 240°
2026-04-22 11:50 10.43825 -68.20660 32914 ft 452 kts 239°
2026-04-22 11:51 10.42297 -68.23441 33578 ft 449 kts 239°
2026-04-22 11:51 10.40790 -68.26215 34175 ft 448 kts 240°
2026-04-22 11:51 10.39301 -68.28997 34737 ft 447 kts 240°
2026-04-22 11:51 10.37841 -68.31760 35296 ft 445 kts 240°
2026-04-22 11:52 10.36389 -68.34535 35820 ft 444 kts 240°
2026-04-22 11:52 10.34934 -68.37333 36244 ft 445 kts 240°
2026-04-22 11:52 10.33507 -68.40093 36678 ft 445 kts 241°
2026-04-22 11:52 10.32061 -68.42900 37098 ft 445 kts 241°
2026-04-22 11:53 10.30611 -68.45718 37574 ft 444 kts 240°
2026-04-22 11:53 10.29186 -68.48484 37984 ft 443 kts 240°
2026-04-22 11:53 10.26286 -68.54112 38053 ft 446 kts 240°
2026-04-22 11:54 10.23414 -68.59689 38040 ft 442 kts 240°
2026-04-22 11:54 10.20570 -68.65210 38028 ft 442 kts 240°
2026-04-22 11:55 10.17685 -68.70805 38018 ft 444 kts 240°
2026-04-22 11:55 10.14819 -68.76360 38021 ft 444 kts 240°
2026-04-22 11:56 10.11939 -68.81944 38045 ft 445 kts 240°
2026-04-22 11:56 10.09047 -68.87546 38060 ft 446 kts 240°
2026-04-22 11:57 10.06155 -68.93144 38062 ft 445 kts 240°
2026-04-22 11:57 10.03270 -68.98727 38057 ft 445 kts 240°
2026-04-22 11:58 10.00380 -69.04315 38045 ft 445 kts 240°
2026-04-22 11:58 9.97498 -69.09887 38042 ft 446 kts 240°
2026-04-22 11:59 9.94623 -69.15439 38048 ft 446 kts 240°
2026-04-22 11:59 9.91725 -69.21034 38050 ft 446 kts 240°
2026-04-22 12:00 9.88829 -69.26625 38056 ft 446 kts 240°
2026-04-22 12:00 9.85911 -69.32246 38072 ft 447 kts 240°
2026-04-22 12:01 9.82993 -69.37852 38079 ft 447 kts 240°
2026-04-22 12:01 9.80060 -69.43484 38091 ft 447 kts 240°
2026-04-22 12:02 9.77141 -69.49088 38113 ft 447 kts 239°
2026-04-22 12:02 9.74233 -69.54668 38128 ft 447 kts 239°
2026-04-22 12:03 9.71348 -69.60204 38124 ft 446 kts 239°
2026-04-22 12:03 9.68434 -69.65790 38122 ft 446 kts 239°
2026-04-22 12:04 9.65509 -69.71394 38123 ft 446 kts 239°
2026-04-22 12:04 9.62607 -69.76953 38130 ft 446 kts 239°
2026-04-22 12:05 9.59701 -69.82513 38159 ft 447 kts 239°
2026-04-22 12:05 9.56783 -69.88095 38184 ft 447 kts 239°
2026-04-22 12:06 9.53868 -69.93671 38213 ft 446 kts 239°
2026-04-22 12:06 9.50957 -69.99234 38225 ft 448 kts 239°
2026-04-22 12:07 9.48035 -70.04817 38215 ft 449 kts 239°
2026-04-22 12:07 9.45106 -70.10410 38203 ft 449 kts 239°
2026-04-22 12:08 9.42166 -70.16020 38210 ft 449 kts 239°
2026-04-22 12:08 9.39227 -70.21629 38220 ft 450 kts 239°
2026-04-22 12:09 9.36296 -70.27222 38235 ft 450 kts 239°
2026-04-22 12:09 9.33366 -70.32806 38234 ft 450 kts 239°
2026-04-22 12:10 9.30421 -70.38416 38235 ft 451 kts 239°
2026-04-22 12:10 9.27462 -70.44053 38239 ft 451 kts 239°
2026-04-22 12:11 9.24506 -70.49681 38254 ft 453 kts 239°
2026-04-22 12:11 9.21547 -70.55313 38288 ft 453 kts 238°
2026-04-22 12:12 9.18578 -70.60961 38112 ft 448 kts 239°
2026-04-22 12:12 9.17124 -70.63731 37708 ft 441 kts 239°
2026-04-22 12:12 9.15686 -70.66468 37203 ft 437 kts 239°
2026-04-22 12:13 9.14267 -70.69169 36610 ft 434 kts 239°
2026-04-22 12:13 9.12842 -70.71876 35977 ft 432 kts 239°
2026-04-22 12:13 9.11427 -70.74561 35269 ft 432 kts 239°
2026-04-22 12:13 9.10014 -70.77241 34542 ft 432 kts 240°
2026-04-22 12:14 9.08601 -70.79923 33815 ft 432 kts 240°
2026-04-22 12:14 9.07172 -70.82634 33067 ft 432 kts 240°
2026-04-22 12:14 9.05767 -70.85299 32320 ft 433 kts 240°
2026-04-22 12:14 9.04343 -70.87998 31547 ft 434 kts 241°
2026-04-22 12:15 9.02927 -70.90684 31003 ft 430 kts 241°
2026-04-22 12:15 9.01522 -70.93347 30427 ft 427 kts 241°
2026-04-22 12:15 9.00131 -70.95987 29837 ft 424 kts 241°
2026-04-22 12:15 8.98734 -70.98637 29237 ft 421 kts 242°
2026-04-22 12:16 8.97361 -71.01241 28645 ft 419 kts 242°
2026-04-22 12:16 8.96012 -71.03799 28065 ft 417 kts 242°
2026-04-22 12:16 8.94635 -71.06409 27459 ft 415 kts 242°
2026-04-22 12:16 8.93295 -71.08948 26874 ft 413 kts 242°
2026-04-22 12:17 8.91940 -71.11515 26262 ft 412 kts 242°
2026-04-22 12:17 8.90589 -71.14073 25643 ft 411 kts 242°
2026-04-22 12:17 8.89250 -71.16608 25049 ft 409 kts 242°
2026-04-22 12:17 8.87895 -71.19174 24435 ft 408 kts 242°
2026-04-22 12:18 8.86555 -71.21711 23841 ft 407 kts 242°
2026-04-22 12:18 8.85208 -71.24262 23257 ft 406 kts 241°
2026-04-22 12:18 8.83873 -71.26789 22683 ft 405 kts 241°
2026-04-22 12:18 8.82531 -71.29326 22099 ft 405 kts 241°
2026-04-22 12:19 8.81190 -71.31861 21496 ft 405 kts 242°
2026-04-22 12:19 8.79866 -71.34363 20892 ft 405 kts 242°
2026-04-22 12:19 8.78550 -71.36848 20268 ft 405 kts 242°
2026-04-22 12:19 8.77213 -71.39374 19628 ft 405 kts 242°
2026-04-22 12:20 8.75886 -71.41881 18992 ft 404 kts 242°
2026-04-22 12:20 8.74557 -71.44393 18348 ft 403 kts 242°
2026-04-22 12:20 8.73246 -71.46875 17684 ft 401 kts 242°
2026-04-22 12:20 8.71936 -71.49355 17008 ft 392 kts 242°
2026-04-22 12:21 8.70667 -71.51759 16432 ft 377 kts 243°
2026-04-22 12:21 8.69456 -71.54051 15858 ft 365 kts 243°
2026-04-22 12:21 8.68287 -71.56264 15278 ft 355 kts 243°
2026-04-22 12:21 8.67148 -71.58421 14737 ft 345 kts 242°
2026-04-22 12:22 8.66013 -71.60568 14157 ft 346 kts 243°
2026-04-22 12:22 8.64879 -71.62714 13581 ft 346 kts 243°
2026-04-22 12:22 8.63716 -71.64915 13022 ft 346 kts 243°
2026-04-22 12:22 8.62586 -71.67050 12449 ft 347 kts 243°
2026-04-22 12:23 8.61480 -71.69165 11884 ft 346 kts 243°
2026-04-22 12:23 8.60382 -71.71350 11347 ft 346 kts 244°
2026-04-22 12:23 8.59321 -71.73513 10834 ft 344 kts 244°
2026-04-22 12:23 8.58268 -71.75670 10516 ft 336 kts 244°
2026-04-22 12:24 8.57249 -71.77751 10383 ft 322 kts 244°
2026-04-22 12:24 8.56269 -71.79745 10261 ft 309 kts 244°
2026-04-22 12:24 8.55329 -71.81649 10026 ft 302 kts 244°
2026-04-22 12:24 8.54386 -71.83555 9616 ft 302 kts 244°
2026-04-22 12:25 8.53438 -71.85468 9233 ft 300 kts 244°
2026-04-22 12:25 8.52509 -71.87347 8856 ft 298 kts 244°
2026-04-22 12:25 8.51583 -71.89210 8491 ft 290 kts 244°
2026-04-22 12:25 8.50704 -71.90981 8146 ft 281 kts 244°
2026-04-22 12:26 8.49834 -71.92734 7772 ft 273 kts 244°
2026-04-22 12:26 8.49003 -71.94411 7463 ft 263 kts 244°
2026-04-22 12:26 8.48191 -71.96046 7162 ft 255 kts 244°
2026-04-22 12:26 8.47405 -71.97635 6875 ft 249 kts 244°
2026-04-22 12:27 8.46636 -71.99185 6654 ft 240 kts 244°
2026-04-22 12:27 8.45902 -72.00664 6482 ft 235 kts 244°
2026-04-22 12:27 8.45170 -72.02138 6211 ft 235 kts 244°
2026-04-22 12:27 8.44434 -72.03624 5913 ft 234 kts 243°
2026-04-22 12:28 8.43714 -72.05080 5603 ft 232 kts 243°
2026-04-22 12:28 8.42998 -72.06527 5318 ft 227 kts 244°
2026-04-22 12:28 8.42303 -72.07930 5039 ft 220 kts 244°
2026-04-22 12:28 8.41617 -72.09313 4729 ft 214 kts 244°
2026-04-22 12:29 8.40966 -72.10626 4481 ft 207 kts 244°
2026-04-22 12:29 8.40322 -72.11928 4257 ft 201 kts 244°
2026-04-22 12:29 8.39710 -72.13163 4082 ft 188 kts 244°
2026-04-22 12:29 8.39144 -72.14295 3923 ft 181 kts 244°
2026-04-22 12:30 8.38017 -72.16569 3629 ft 175 kts 244°
2026-04-22 12:30 8.37489 -72.17639 3476 ft 167 kts 244°
2026-04-22 12:30 8.36975 -72.18685 3305 ft 165 kts 244°
2026-04-22 12:31 8.36468 -72.19716 3140 ft 162 kts 244°
2026-04-22 12:31 8.35968 -72.20728 2963 ft 161 kts 244°
2026-04-22 12:31 8.35461 -72.21746 2769 ft 163 kts 243°
2026-04-22 12:31 8.34949 -72.22772 2573 ft 160 kts 243°
2026-04-22 12:32 8.34449 -72.23775 2404 ft 159 kts 244°
2026-04-22 12:32 8.33450 -72.25784 2092 ft 158 kts 244°
2026-04-22 12:32 8.32947 -72.26763 1927 ft 160 kts 239°
2026-04-22 12:33 8.32141 -72.27518 1772 ft 157 kts 201°
2026-04-22 12:33 8.31074 -72.27683 1839 ft 152 kts 178°
2026-04-22 12:33 8.30001 -72.27681 1684 ft 154 kts 179°
2026-04-22 12:33 8.28897 -72.27605 1417 ft 157 kts 173°
2026-04-22 12:34 8.27796 -72.27451 1149 ft 159 kts 169°
2026-04-22 12:34 8.26679 -72.27237 873 ft 160 kts 167°
2026-04-22 12:34 8.25562 -72.27101 561 ft 160 kts 178°
2026-04-22 12:34 8.24438 -72.27099 319 ft 157 kts 179°
2026-04-22 12:35 8.23552 -72.27100 337 ft 87 kts 180°
2026-04-22 12:35 8.23167 -72.27100 344 ft 25 kts 180°
2026-04-22 12:35 8.23061 -72.27092 346 ft 10 kts 163°
2026-04-22 12:35 8.23013 -72.27045 347 ft 10 kts 89°
2026-04-22 12:36 8.23039 -72.26979 347 ft 10 kts 63°
2026-04-22 12:36 8.23092 -72.26949 346 ft 9 kts 359°
2026-04-22 12:36 8.23164 -72.26951 344 ft 10 kts 359°
2026-04-22 12:36 8.23239 -72.26952 343 ft 11 kts 359°
2026-04-22 12:37 8.23318 -72.26951 341 ft 11 kts
2026-04-22 12:37 8.23401 -72.26948 339 ft 12 kts
2026-04-22 12:37 8.23491 -72.26944 338 ft 13 kts
2026-04-22 12:37 8.23584 -72.26945 336 ft 13 kts 359°
2026-04-22 12:38 8.23677 -72.26945 334 ft 12 kts 359°
2026-04-22 12:38 8.23720 -72.26910 333 ft 7 kts 80°
2026-04-22 12:38 8.23722 -72.26858 333 ft 7 kts 90°
2026-04-22 12:38 8.23722 -72.26811 334 ft 4 kts 90°
2026-04-22 12:39 8.23722 -72.26805 334 ft 0 kts 90°